Hourly Weather Roundup
Issued by NWS Central Illinois

Home | Current Version | Previous Version | Text Only | Print | Product List | Glossary On
Versions: 1 2 3 4 5 6 7 8 9 10 11 12 13 14 15 16 17 18 19 20 21 22 23 24 25 26 27 28 29 30 31 32 33 34 35 36 37 38 39 40 41 42 43 44 45 46 47 48 49 50
000
NZUS43 KILX 280210
HWRILX

AREA WEATHER ROUNDUP
NATIONAL WEATHER SERVICE, LINCOLN IL
900 PM CDT WED MAY 27 2015


CITY           SKY/WX    TMP DP  RH WIND       PRES   REMARKS
BLOOMINGTON    CLEAR     71  56  59 NE3       30.12R
CHAMPAIGN      CLEAR     70  55  59 N8        30.10R
DANVILLE       CLEAR     69  56  65 NW6       30.07R
DECATUR        CLEAR     68  57  68 CALM      30.10R
EFFINGHAM      CLEAR     68  58  70 CALM      30.11R
FLORA          MOCLDY    73  63  71 CALM      30.10R
GALESBURG      CLEAR     68  58  70 CALM      30.09R
JACKSONVILLE   CLEAR     71  61  71 CALM      30.10R
LACON          CLEAR     64  59  85 CALM      30.08R
LAWRENCEVILLE  MOCLDY    71  61  70 S5        30.09R
LITCHFIELD     CLEAR     68  58  70 N3        30.11R
$$


CITY           SKY/WX    TMP DP  RH WIND       PRES   REMARKS
LINCOLN        CLEAR     70  58  66 CALM      30.07R
MACOMB         PTCLDY    68  61  79 CALM      30.10R
MATTOON        NOT AVBL
MT CARMEL AP   MOCLDY    77  59  53 S5        30.09R
OLNEY-NOBLE AP MOCLDY    73  61  64 CALM      30.09R
PARIS          CLEAR     71  58  62 CALM      30.10R
PEORIA         CLEAR     71  58  63 NE3       30.09R
PONTIAC        CLEAR     70  59  69 CALM      30.11R
RANTOUL        CLEAR     72  56  57 N5        30.11R
ROBINSON       CLOUDY    77  59  54 SW3       30.09R
SPRINGFIELD    CLEAR     68  59  73 CALM      30.09S
TAYLORVILLE    CLEAR     68  61  77 CALM      30.10R
$$

...REGIONAL REPORTS...


CITY           SKY/WX    TMP DP  RH WIND       PRES   REMARKS
CHICAGO O`HARE CLEAR     67  54  63 CALM      30.09R
KANKAKEE       CLEAR     69  56  63 N3        30.11R
MOLINE         CLEAR     68  59  73 CALM      30.06R
MOUNT VERNON   CLOUDY    73  63  68 NW3       30.10R
PITTSFIELD     PTCLDY    69  60  71 E3        30.11R
QUINCY         PTCLDY    71  60  68 SE3       30.09R
ROCKFORD       PTCLDY    66  57  72 SE3       30.09R
$$


CITY           SKY/WX    TMP DP  RH WIND       PRES   REMARKS
BURLINGTON     CLEAR     69  61  75 CALM      30.07S
CEDAR RAPIDS   CLEAR     70  61  73 S3        30.05R
DES MOINES     PTCLDY    75  58  55 S6        30.04S
KIRKSVILLE     PTCLDY    66  61  84 CALM      30.10R
OTTUMWA        PTCLDY    68  61  78 S3        30.06S
ST LOUIS       PTCLDY    76  57  51 N6        30.09R
$$


CITY           SKY/WX    TMP DP  RH WIND       PRES   REMARKS
TERRE HAUTE    PTCLDY    74  58  57 NW3       30.08R
EVANSVILLE     CLOUDY    71  64  78 S6        30.12R
INDIANAPOLIS   MOCLDY    70  63  78 W6        30.07S
LAFAYETTE      CLEAR     66  57  72 NW7       30.07R
MADISON        PTCLDY    67  58  72 SW3       30.05R
MILWAUKEE      PTCLDY    63  54  72 S3        30.07R
$$





USA.gov is the U.S. government's official web portal to all federal, state and local government web resources and services.